359P/LONEOS (2017)

Japanese version
Home page
Updated on June 15, 2021

---------------------------------------------------------------------

* Profile

Designation 359P/2017 Q2
Recovery Date August 22, 2017
Magnitude 20.6 mag
Recoverer Pan-STARRS 1 telescope (Haleakala)

* Pictures

* Orbital Elements

Epoch 2017 Sept. 4.0 TT = JDT 2458000.5
T 2017 Aug. 20.49332 TT                                 MPCW
q   3.1396835            (2000.0)            P               Q
n   0.09869501     Peri.  200.11539     +0.98177911     +0.16756819
a   4.6373790      Node   149.79874     -0.14066480     +0.95793325
e   0.3229616      Incl.   10.26176     -0.12776227     +0.23299097
P   9.99
From 128 observations 2007 Aug. 21-2018 Feb. 10, mean residual 0".5.

* Magnitudes Graph

        m1 = 13.0 + 5 log d + 10.0 log r  [   ,120]  (             - 2017 Dec. 18)
        m1 =  0.0 + 5 log d + 30   log r  [120,   ]  (2017 Dec. 18 -             )

---------------------------------------------------------------------

The orbital elements are published on M.P.E.C. 2018-H105.
The magnitudes graphs are made with Comet for Windows.

---------------------------------------------------------------------

Copyright(C) Seiichi Yoshida (comet@aerith.net). All rights reserved.